| time (UTC) | temp F | wind direction | speed MPH | gust MPH | rain 1hr in | rain 24hr in | rain mn in | humidity % | barometer mb |
| 20260510132003 | 48 | 212 | 10.0 | 14.0 | 0.00 | 0.46 | 0.08 | 95 | 1012.1 |
| 20260510131024 | 48 | 200 | 11.0 | 13.0 | 0.00 | 0.46 | 0.08 | 95 | 1012.1 |
| 20260510130003 | 48 | 208 | 11.0 | 15.0 | 0.00 | 0.46 | 0.08 | 95 | 1012.2 |
| 20260510125002 | 48 | 215 | 8.0 | 11.0 | 0.00 | 0.46 | 0.08 | 96 | 1012.1 |
| 20260510124003 | 48 | 219 | 6.0 | 11.0 | 0.00 | 0.46 | 0.08 | 96 | 1012.0 |
| 20260510123003 | 48 | 218 | 8.0 | 14.0 | 0.00 | 0.46 | 0.08 | 95 | 1012.1 |
| 20260510122023 | 48 | 217 | 9.0 | 12.0 | 0.00 | 0.46 | 0.08 | 95 | 1012.1 |
| 20260510121003 | 47 | 218 | 9.0 | 13.0 | 0.00 | 0.46 | 0.08 | 96 | 1012.1 |
| 20260510120024 | 47 | 220 | 9.0 | 14.0 | 0.00 | 0.46 | 0.08 | 96 | 1012.1 |
| 20260510115003 | 47 | 205 | 10.0 | 13.0 | 0.00 | 0.46 | 0.08 | 95 | 1011.9 |
| 20260510114003 | 47 | 199 | 8.0 | 11.0 | 0.00 | 0.46 | 0.08 | 95 | 1011.3 |
| 20260510113002 | 47 | 201 | 8.0 | 11.0 | 0.00 | 0.46 | 0.08 | 95 | 1011.4 |
| 20260510112003 | 47 | 195 | 8.0 | 10.0 | 0.00 | 0.46 | 0.08 | 95 | 1011.4 |
| 20260510111003 | 47 | 197 | 6.0 | 9.0 | 0.00 | 0.46 | 0.08 | 95 | 1011.2 |
| 20260510110003 | 47 | 194 | 5.0 | 8.0 | 0.00 | 0.46 | 0.08 | 95 | 1011.1 |
| 20260510105003 | 47 | 206 | 5.0 | 9.0 | 0.00 | 0.46 | 0.08 | 95 | 1011.2 |
| 20260510104003 | 47 | 213 | 6.0 | 9.0 | 0.00 | 0.46 | 0.08 | 95 | 1011.3 |
| 20260510103003 | 47 | 224 | 7.0 | 11.0 | 0.00 | 0.46 | 0.08 | 95 | 1011.3 |
| 20260510102002 | 47 | 228 | 7.0 | 10.0 | 0.00 | 0.46 | 0.08 | 95 | 1011.2 |
| 20260510101003 | 47 | 229 | 6.0 | 14.0 | 0.00 | 0.46 | 0.08 | 95 | 1011.1 |
| 20260510100003 | 48 | 219 | 10.0 | 14.0 | 0.00 | 0.46 | 0.08 | 95 | 1011.0 |
| 20260510094024 | 48 | 207 | 15.0 | 18.0 | 0.00 | 0.46 | 0.08 | 95 | 1010.8 |
| 20260510093003 | 48 | 199 | 16.0 | 19.0 | 0.00 | 0.46 | 0.08 | 95 | 1010.8 |
| 20260510092003 | 48 | 192 | 13.0 | 18.0 | 0.00 | 0.46 | 0.08 | 95 | 1010.6 |
| 20260510091002 | 48 | 186 | 13.0 | 15.0 | 0.00 | 0.46 | 0.08 | 95 | 1010.6 |
| 20260510090003 | 48 | 184 | 12.0 | 15.0 | 0.00 | 0.46 | 0.08 | 95 | 1010.7 |
| 20260510085003 | 48 | 180 | 13.0 | 16.0 | 0.00 | 0.46 | 0.08 | 95 | 1010.7 |
| 20260510084023 | 48 | 177 | 14.0 | 22.0 | 0.00 | 0.46 | 0.08 | 95 | 1010.7 |
| 20260510083003 | 48 | 156 | 15.0 | 21.0 | 0.00 | 0.46 | 0.08 | 95 | 1010.5 |
| 20260510082003 | 48 | 157 | 15.0 | 21.0 | 0.00 | 0.46 | 0.08 | 95 | 1010.3 |
| 20260510081003 | 48 | 152 | 15.0 | 20.0 | 0.00 | 0.46 | 0.08 | 95 | 1010.6 |
| 20260510080003 | 48 | 142 | 17.0 | 21.0 | 0.07 | 0.46 | 0.08 | 94 | 1010.4 |
| 20260510075003 | 48 | 138 | 18.0 | 22.0 | 0.07 | 0.46 | 0.08 | 94 | 1010.5 |
| 20260510074003 | 48 | 134 | 17.0 | 20.0 | 0.07 | 0.46 | 0.08 | 95 | 1010.5 |
| 20260510073002 | 48 | 124 | 13.0 | 16.0 | 0.06 | 0.45 | 0.07 | 95 | 1010.7 |
| 20260510071003 | 47 | 129 | 11.0 | 14.0 | 0.01 | 0.40 | 0.02 | 94 | 1011.0 |
| 20260510070003 | 47 | 135 | 12.0 | 15.0 | 0.01 | 0.39 | 0.01 | 95 | 1011.0 |
| 20260510065003 | 47 | 133 | 13.0 | 15.0 | 0.00 | 0.38 | 0.00 | 94 | 1011.0 |
| 20260510064003 | 47 | 136 | 11.0 | 17.0 | 0.00 | 0.38 | 0.00 | 94 | 1011.2 |
| 20260510063003 | 47 | 134 | 13.0 | 15.0 | 0.00 | 0.38 | 0.00 | 94 | 1011.2 |
| 20260510062024 | 47 | 136 | 11.0 | 13.0 | 0.00 | 0.38 | 0.00 | 94 | 1011.3 |
| 20260510061003 | 47 | 138 | 12.0 | 15.0 | 0.00 | 0.38 | 0.00 | 94 | 1011.4 |
| 20260510060003 | 47 | 138 | 13.0 | 17.0 | 0.00 | 0.38 | 0.00 | 94 | 1011.5 |
| 20260510055002 | 47 | 147 | 13.0 | 17.0 | 0.00 | 0.38 | 0.00 | 95 | 1011.7 |
| 20260510054003 | 47 | 150 | 12.0 | 17.0 | 0.00 | 0.38 | 0.00 | 95 | 1011.8 |
| 20260510053003 | 47 | 148 | 12.0 | 16.0 | 0.00 | 0.38 | 0.00 | 95 | 1011.9 |
| 20260510052024 | 47 | 146 | 12.0 | 15.0 | 0.00 | 0.38 | 0.00 | 95 | 1012.0 |
| 20260510051003 | 47 | 146 | 12.0 | 14.0 | 0.00 | 0.38 | 0.00 | 95 | 1012.1 |
| 20260510050002 | 47 | 158 | 11.0 | 14.0 | 0.00 | 0.38 | 0.00 | 94 | 1012.3 |
| 20260510045003 | 47 | 155 | 10.0 | 14.0 | 0.00 | 0.38 | 0.00 | 94 | 1012.2 |
| 20260510044002 | 47 | 169 | 12.0 | 14.0 | 0.00 | 0.38 | 0.00 | 95 | 1012.3 |
| 20260510043003 | 47 | 183 | 11.0 | 14.0 | 0.00 | 0.38 | 0.00 | 94 | 1012.5 |
| 20260510042002 | 48 | 187 | 12.0 | 17.0 | 0.00 | 0.38 | 0.00 | 95 | 1012.4 |
| 20260510041024 | 48 | 189 | 14.0 | 17.0 | 0.00 | 0.38 | 0.00 | 95 | 1012.5 |
| 20260510040003 | 47 | 181 | 12.0 | 17.0 | 0.00 | 0.38 | 0.00 | 95 | 1012.5 |
| 20260510035003 | 47 | 178 | 14.0 | 17.0 | 0.00 | 0.38 | 0.38 | 95 | 1012.5 |
| 20260510034003 | 47 | 186 | 14.0 | 18.0 | 0.00 | 0.38 | 0.38 | 95 | 1012.7 |
| 20260510033002 | 48 | 184 | 15.0 | 20.0 | 0.00 | 0.38 | 0.38 | 94 | 1012.8 |
| 20260510032003 | 48 | 186 | 17.0 | 20.0 | 0.00 | 0.38 | 0.38 | 95 | 1012.9 |
| 20260510031024 | 48 | 227 | 8.0 | 12.0 | 0.00 | 0.38 | 0.38 | 95 | 1012.6 |
| 20260510030004 | 48 | 221 | 9.0 | 14.0 | 0.05 | 0.38 | 0.38 | 94 | 1012.4 |
| 20260510025003 | 48 | 216 | 10.0 | 14.0 | 0.05 | 0.38 | 0.38 | 94 | 1012.5 |
| 20260510024003 | 48 | 219 | 11.0 | 16.0 | 0.05 | 0.38 | 0.38 | 94 | 1012.5 |
| 20260510023004 | 48 | 219 | 10.0 | 16.0 | 0.04 | 0.37 | 0.37 | 94 | 1012.4 |
| 20260510022003 | 47 | 212 | 12.0 | 16.0 | 0.04 | 0.37 | 0.37 | 94 | 1012.5 |
| 20260510021004 | 47 | 205 | 13.0 | 16.0 | 0.02 | 0.35 | 0.35 | 94 | 1012.6 |
| 20260510020004 | 47 | 214 | 10.0 | 16.0 | 0.00 | 0.33 | 0.33 | 94 | 1012.6 |
| 20260510015003 | 48 | 201 | 15.0 | 18.0 | 0.06 | 0.33 | 0.33 | 94 | 1012.6 |
| 20260510014024 | 47 | 213 | 11.0 | 17.0 | 0.05 | 0.32 | 0.32 | 94 | 1012.3 |
| 20260510013045 | 47 | 194 | 15.0 | 17.0 | 0.04 | 0.31 | 0.31 | 94 | 1012.5 |
| 20260510012003 | 48 | 184 | 14.0 | 20.0 | 0.02 | 0.29 | 0.29 | 94 | 1012.3 |
| 20260510011004 | 48 | 178 | 17.0 | 22.0 | 0.01 | 0.28 | 0.28 | 94 | 1012.4 |
| 20260510010003 | 47 | 141 | 15.0 | 27.0 | 0.08 | 0.27 | 0.27 | 93 | 1012.4 |
| 20260510005003 | 47 | 143 | 24.0 | 28.0 | 0.06 | 0.25 | 0.25 | 94 | 1012.1 |
| 20260510004024 | 46 | 132 | 16.0 | 22.0 | 0.04 | 0.23 | 0.23 | 93 | 1012.2 |
| 20260510003004 | 46 | 123 | 15.0 | 19.0 | 0.03 | 0.22 | 0.22 | 93 | 1012.2 |
| 20260510002004 | 46 | 114 | 15.0 | 19.0 | 0.02 | 0.21 | 0.21 | 93 | 1012.3 |
| 20260510001003 | 46 | 99 | 13.0 | 15.0 | 0.01 | 0.20 | 0.20 | 93 | 1012.4 |
| 20260510000024 | 45 | 76 | 12.0 | 16.0 | 0.03 | 0.19 | 0.19 | 93 | 1012.5 |
| 20260509235002 | 45 | 70 | 14.0 | 18.0 | 0.02 | 0.18 | 0.18 | 93 | 1012.4 |
| 20260509234003 | 45 | 74 | 16.0 | 19.0 | 0.02 | 0.18 | 0.18 | 93 | 1012.3 |
| 20260509233025 | 45 | 75 | 17.0 | 21.0 | 0.01 | 0.17 | 0.17 | 93 | 1012.5 |
| 20260509232003 | 45 | 92 | 18.0 | 22.0 | 0.01 | 0.17 | 0.17 | 93 | 1012.8 |
| 20260509231024 | 45 | 89 | 19.0 | 23.0 | 0.01 | 0.17 | 0.17 | 93 | 1012.9 |
| 20260509230004 | 44 | 82 | 18.0 | 21.0 | 0.00 | 0.16 | 0.16 | 93 | 1012.9 |
| 20260509225003 | 44 | 65 | 18.0 | 22.0 | 0.02 | 0.16 | 0.16 | 92 | 1012.5 |
| 20260509224024 | 45 | 77 | 18.0 | 22.0 | 0.02 | 0.16 | 0.16 | 92 | 1012.7 |
| 20260509223003 | 45 | 71 | 17.0 | 19.0 | 0.01 | 0.15 | 0.15 | 92 | 1012.9 |
| 20260509222003 | 45 | 77 | 17.0 | 19.0 | 0.01 | 0.15 | 0.15 | 92 | 1013.2 |
| 20260509221002 | 45 | 85 | 16.0 | 18.0 | 0.00 | 0.14 | 0.14 | 92 | 1013.3 |
| 20260509220024 | 45 | 86 | 16.0 | 19.0 | 0.00 | 0.14 | 0.14 | 92 | 1013.5 |
| 20260509215003 | 45 | 85 | 14.0 | 17.0 | 0.00 | 0.14 | 0.14 | 92 | 1013.6 |
| 20260509214003 | 45 | 81 | 15.0 | 18.0 | 0.00 | 0.14 | 0.14 | 92 | 1013.4 |
| 20260509213003 | 45 | 95 | 15.0 | 18.0 | 0.00 | 0.14 | 0.14 | 92 | 1013.6 |
| 20260509212002 | 45 | 97 | 15.0 | 17.0 | 0.00 | 0.14 | 0.14 | 91 | 1013.7 |
| 20260509211024 | 45 | 86 | 12.0 | 15.0 | 0.00 | 0.14 | 0.14 | 92 | 1014.0 |
| 20260509210004 | 45 | 78 | 12.0 | 14.0 | 0.00 | 0.14 | 0.14 | 91 | 1013.4 |
| 20260509205003 | 45 | 58 | 10.0 | 14.0 | 0.04 | 0.13 | 0.13 | 91 | 1013.0 |
| 20260509204003 | 45 | 110 | 8.0 | 10.0 | 0.03 | 0.12 | 0.12 | 91 | 1014.0 |
| 20260509203003 | 45 | 126 | 6.0 | 10.0 | 0.03 | 0.12 | 0.12 | 91 | 1014.4 |
| 20260509201045 | 45 | 124 | 9.0 | 11.0 | 0.00 | 0.09 | 0.09 | 91 | 1014.2 |
| 20260509200003 | 45 | 124 | 8.0 | 10.0 | 0.04 | 0.09 | 0.09 | 91 | 1014.1 |
| 20260509195004 | 46 | 160 | 6.0 | 9.0 | 0.03 | 0.08 | 0.08 | 90 | 1014.4 |
| 20260509194024 | 46 | 152 | 4.0 | 8.0 | 0.02 | 0.07 | 0.07 | 90 | 1014.3 |
| 20260509193003 | 46 | 158 | 5.0 | 8.0 | 0.01 | 0.06 | 0.06 | 90 | 1014.5 |
| 20260509192024 | 46 | 158 | 6.0 | 9.0 | 0.01 | 0.06 | 0.06 | 90 | 1014.5 |
| 20260509191023 | 46 | 173 | 9.0 | 13.0 | 0.00 | 0.05 | 0.05 | 90 | 1014.4 |
| 20260509190024 | 45 | 178 | 11.0 | 15.0 | 0.05 | 0.05 | 0.05 | 89 | 1014.7 |
| 20260509185003 | 46 | 179 | 12.0 | 16.0 | 0.04 | 0.04 | 0.04 | 89 | 1014.5 |
| 20260509184003 | 46 | 184 | 14.0 | 17.0 | 0.03 | 0.03 | 0.03 | 88 | 1014.7 |
| 20260509183024 | 47 | 185 | 11.0 | 14.0 | 0.02 | 0.02 | 0.02 | 88 | 1014.5 |
| 20260509182003 | 47 | 183 | 9.0 | 12.0 | 0.01 | 0.01 | 0.01 | 87 | 1014.6 |
| 20260509181024 | 48 | 191 | 10.0 | 13.0 | 0.00 | 0.00 | 0.00 | 87 | 1014.5 |
| 20260509180003 | 48 | 190 | 13.0 | 18.0 | 0.00 | 0.00 | 0.00 | 86 | 1014.6 |
| 20260509175003 | 48 | 199 | 15.0 | 17.0 | 0.00 | 0.00 | 0.00 | 86 | 1014.5 |
| 20260509174003 | 48 | 192 | 6.0 | 9.0 | 0.00 | 0.00 | 0.00 | 87 | 1014.4 |
| 20260509173002 | 48 | 197 | 5.0 | 8.0 | 0.00 | 0.00 | 0.00 | 87 | 1014.5 |
| 20260509172003 | 48 | 192 | 5.0 | 7.0 | 0.00 | 0.00 | 0.00 | 87 | 1014.5 |
| 20260509171003 | 48 | 182 | 4.0 | 8.0 | 0.00 | 0.00 | 0.00 | 87 | 1014.5 |
| 20260509170003 | 48 | 195 | 0.0 | 5.0 | 0.00 | 0.00 | 0.00 | 87 | 1014.6 |
| 20260509165003 | 48 | 177 | 4.0 | 6.0 | 0.00 | 0.00 | 0.00 | 87 | 1014.5 |
| 20260509164003 | 48 | 184 | 6.0 | 9.0 | 0.00 | 0.00 | 0.00 | 86 | 1014.7 |
| 20260509163002 | 48 | 171 | 9.0 | 13.0 | 0.00 | 0.00 | 0.00 | 86 | 1014.7 |
| 20260509162003 | 49 | 183 | 9.0 | 11.0 | 0.00 | 0.00 | 0.00 | 85 | 1014.8 |
| 20260509161003 | 49 | 159 | 6.0 | 10.0 | 0.00 | 0.00 | 0.00 | 85 | 1014.5 |
| 20260509160024 | 49 | 153 | 5.0 | 9.0 | 0.00 | 0.00 | 0.00 | 85 | 1014.5 |
| 20260509155003 | 49 | 150 | 5.0 | 10.0 | 0.00 | 0.00 | 0.00 | 85 | 1014.5 |
| 20260509154003 | 49 | 168 | 10.0 | 11.0 | 0.00 | 0.00 | 0.00 | 85 | 1014.5 |
| 20260509153003 | 49 | 173 | 6.0 | 8.0 | 0.00 | 0.00 | 0.00 | 84 | 1014.5 |
| 20260509152003 | 49 | 149 | 4.0 | 5.0 | 0.00 | 0.00 | 0.00 | 84 | 1014.4 |
| 20260509151002 | 49 | 138 | 3.0 | 7.0 | 0.00 | 0.00 | 0.00 | 84 | 1014.3 |
| 20260509150003 | 49 | 159 | 3.0 | 7.0 | 0.00 | 0.00 | 0.00 | 84 | 1014.2 |
| 20260509145003 | 49 | 151 | 4.0 | 4.0 | 0.00 | 0.00 | 0.00 | 84 | 1014.2 |
| 20260509144003 | 49 | 151 | 3.0 | 5.0 | 0.00 | 0.00 | 0.00 | 84 | 1014.1 |
| 20260509143045 | 50 | 151 | 3.0 | 5.0 | 0.00 | 0.00 | 0.00 | 83 | 1014.0 |
| 20260509141003 | 50 | 154 | 6.0 | 9.0 | 0.00 | 0.00 | 0.00 | 84 | 1014.2 |
| 20260509140002 | 49 | 148 | 5.0 | 8.0 | 0.00 | 0.00 | 0.00 | 83 | 1014.3 |
| 20260509135003 | 49 | 147 | 5.0 | 8.0 | 0.00 | 0.00 | 0.00 | 83 | 1014.1 |
| 20260509134002 | 49 | 141 | 5.0 | 6.0 | 0.00 | 0.00 | 0.00 | 82 | 1014.3 |
| 20260509133003 | 49 | 129 | 4.0 | 5.0 | 0.00 | 0.00 | 0.00 | 81 | 1014.4 |